Wetterdaten: Montag, 29.12.2014
Datum Zeit Temp. A. Feuchte A. Luftdruck Regen Wind Richtung Richtung Sonnenschein ET UV Solar Taupunkt Windchill Windben Empfang
29.12.2014 00:00 -11,6 C 69 % 1030,2 hPa 0,0 l/m 0,0 km/h (0 Bft) S 180 0 min 0,000 mm 0,0 UV-I 0 W/m -16,1 C -11,6 C 0,0 km/h (0 Bft) 0,00 %
29.12.2014 01:00 -12,7 C 67 % 1030,4 hPa 0,0 l/m 0,0 km/h (0 Bft) S 180 0 min 0,000 mm 0,0 UV-I 0 W/m -17,5 C -12,7 C 0,0 km/h (0 Bft) 0,00 %
29.12.2014 02:00 -12,8 C 66 % 1030,8 hPa 0,0 l/m 0,0 km/h (0 Bft) S 180 0 min 0,000 mm 0,0 UV-I 0 W/m -17,8 C -12,8 C 0,0 km/h (0 Bft) 0,00 %
29.12.2014 03:00 -12,6 C 64 % 1031,8 hPa 0,0 l/m 0,0 km/h (0 Bft) S 180 0 min 0,000 mm 0,0 UV-I 0 W/m -18,0 C -12,6 C 0,0 km/h (0 Bft) 0,00 %
29.12.2014 04:00 -13,2 C 65 % 1031,5 hPa 0,0 l/m 0,0 km/h (0 Bft) S 180 0 min 0,000 mm 0,0 UV-I 0 W/m -18,4 C -13,2 C 0,0 km/h (0 Bft) 0,00 %
29.12.2014 05:00 -10,4 C 66 % 1030,6 hPa 0,0 l/m 0,0 km/h (0 Bft) S 180 0 min 0,000 mm 0,0 UV-I 0 W/m -15,5 C -10,4 C 0,0 km/h (0 Bft) 0,00 %
29.12.2014 06:00 -9,8 C 63 % 1030,0 hPa 0,0 l/m 0,0 km/h (0 Bft) S 180 0 min 0,000 mm 0,0 UV-I 0 W/m -15,5 C -9,8 C 0,0 km/h (0 Bft) 0,00 %
29.12.2014 07:00 -9,1 C 64 % 1029,6 hPa 0,0 l/m 0,0 km/h (0 Bft) S 180 0 min 0,000 mm 0,0 UV-I 0 W/m -14,6 C -9,1 C 0,0 km/h (0 Bft) 0,00 %
29.12.2014 08:00 -9,6 C 62 % 1028,9 hPa 0,0 l/m 0,0 km/h (0 Bft) S 180 0 min 0,000 mm 0,0 UV-I 0 W/m -15,5 C -9,6 C 0,0 km/h (0 Bft) 0,00 %
29.12.2014 09:00 -8,6 C 60 % 1028,0 hPa 0,0 l/m 0,0 km/h (0 Bft) S 180 0 min 0,000 mm 1,0 UV-I 37 W/m -14,9 C -8,6 C 0,0 km/h (0 Bft) 0,00 %
29.12.2014 10:00 -7,4 C 62 % 1027,5 hPa 0,0 l/m 0,0 km/h (0 Bft) S 180 0 min 0,000 mm 1,0 UV-I 61 W/m -13,4 C -7,4 C 0,0 km/h (0 Bft) 0,00 %
29.12.2014 11:00 -7,5 C 65 % 1027,2 hPa 0,0 l/m 0,0 km/h (0 Bft) S 180 0 min 0,000 mm 1,0 UV-I 84 W/m -12,9 C -7,5 C 0,0 km/h (0 Bft) 0,00 %
29.12.2014 12:00 -6,6 C 70 % 1026,3 hPa 0,0 l/m 0,0 km/h (0 Bft) S 180 0 min 0,000 mm 1,0 UV-I 88 W/m -11,1 C -6,6 C 0,0 km/h (0 Bft) 0,00 %
29.12.2014 13:00 -6,1 C 71 % 1025,8 hPa 0,0 l/m 0,0 km/h (0 Bft) S 180 0 min 0,000 mm 1,0 UV-I 60 W/m -10,5 C -6,1 C 0,0 km/h (0 Bft) 0,00 %
29.12.2014 14:00 -6,1 C 72 % 1025,8 hPa 0,0 l/m 0,0 km/h (0 Bft) S 180 0 min 0,000 mm 1,0 UV-I 60 W/m -10,3 C -6,1 C 0,0 km/h (0 Bft) 0,00 %
29.12.2014 15:00 -5,8 C 72 % 1026,5 hPa 0,0 l/m 0,0 km/h (0 Bft) S 180 0 min 0,000 mm 0,0 UV-I 30 W/m -10,0 C -5,8 C 0,0 km/h (0 Bft) 0,00 %
29.12.2014 16:00 -6,1 C 72 % 1027,3 hPa 0,0 l/m 0,0 km/h (0 Bft) S 180 0 min 0,000 mm 0,0 UV-I 0 W/m -10,3 C -6,1 C 0,0 km/h (0 Bft) 0,00 %
29.12.2014 17:00 -6,3 C 72 % 1028,0 hPa 0,0 l/m 0,0 km/h (0 Bft) S 180 0 min 0,000 mm 0,0 UV-I 0 W/m -10,5 C -6,3 C 0,0 km/h (0 Bft) 0,00 %
29.12.2014 18:00 -7,0 C 73 % 1028,9 hPa 0,0 l/m 0,0 km/h (0 Bft) S 180 0 min 0,000 mm 0,0 UV-I 0 W/m -11,0 C -7,0 C 0,0 km/h (0 Bft) 0,00 %
29.12.2014 19:00 -6,8 C 72 % 1029,9 hPa 0,0 l/m 0,0 km/h (0 Bft) S 180 0 min 0,000 mm 0,0 UV-I 0 W/m -11,0 C -6,8 C 0,0 km/h (0 Bft) 0,00 %
29.12.2014 20:00 -6,7 C 73 % 1030,9 hPa 0,0 l/m 0,0 km/h (0 Bft) S 180 0 min 0,000 mm 0,0 UV-I 0 W/m -10,7 C -6,7 C 0,0 km/h (0 Bft) 0,00 %
29.12.2014 21:00 -6,7 C 73 % 1031,7 hPa 0,0 l/m 0,0 km/h (0 Bft) S 180 0 min 0,000 mm 0,0 UV-I 0 W/m -10,7 C -6,7 C 0,0 km/h (0 Bft) 0,00 %
29.12.2014 22:00 -6,9 C 72 % 1033,1 hPa 0,0 l/m 0,0 km/h (0 Bft) S 180 0 min 0,000 mm 0,0 UV-I 0 W/m -11,1 C -6,9 C 0,0 km/h (0 Bft) 0,00 %
29.12.2014 23:00 -8,3 C 70 % 1033,7 hPa 0,0 l/m 0,0 km/h (0 Bft) S 180 0 min 0,000 mm 0,0 UV-I 0 W/m -12,8 C -8,3 C 0,0 km/h (0 Bft) 0,00 %
_ Min-Zeit 04:00 09:00 13:00 - 00:00 - - - - - - 04:00 04:00 00:00 00:00
Minimum _ -13,2 C 60 % 1025,8 hPa - 0,0 km/h (0 Bft) - - - - - - -18,4 C -13,2 C 0,0 km/h (0 Bft) 0,00 %
_ Max-Zeit 15:00 18:00 23:00 00:00 00:00 - - 00:00 00:00 09:00 12:00 15:00 15:00 00:00 00:00
Maximum _ -5,8 C 73 % 1033,7 hPa 0,0 l/m 0,0 km/h
S (0 Bft)
- - 0 min 0,000 mm 1,0 UV-I 88 W/m -10,0 C -5,8 C 0,0 km/h
S (0 Bft)
0,00 %
Durchschnitt _ -8,4 C 68 % 1029,3 hPa #0,0 l/m 0,0 km/h (0 Bft) - - - #0 min. #0,000 mm 1,0 UV-I 60 W/m -13,2 C -8,4 C 0,0 km/h (0 Bft) 0,00 %